Previsão horária em Aliağa

Hoje, 22 Janeiro, Sexta-feira

Tempo Temperatura Precipitação Vento Pressão Humidade
00:00 +4°C° 0 mm 3 m/s 766 mmHg 66%
01:00 +4°C° 0 mm 3 m/s 765 mmHg 67%
02:00 +3°C° 0 mm 3 m/s 765 mmHg 67%
03:00 +3°C° 0 mm 3 m/s 765 mmHg 68%
04:00 +3°C° 0 mm 3 m/s 765 mmHg 69%
05:00 +3°C° 0 mm 3 m/s 764 mmHg 70%
06:00 +3°C° 0 mm 4 m/s 764 mmHg 70%
07:00 +4°C° 0 mm 4 m/s 764 mmHg 71%
08:00 +4°C° 0 mm 4 m/s 764 mmHg 71%
09:00 +5°C° 0 mm 4 m/s 764 mmHg 70%
10:00 +6°C° 0 mm 4 m/s 764 mmHg 69%
11:00 +8°C° 0 mm 4 m/s 764 mmHg 68%
12:00 +7°C° 0.1 mm 4 m/s 764 mmHg 72%
13:00 +7°C° 0.1 mm 4 m/s 763 mmHg 76%
14:00 +7°C° 0.1 mm 4 m/s 763 mmHg 80%
15:00 +7°C° 0.1 mm 4 m/s 763 mmHg 81%
16:00 +7°C° 0.1 mm 4 m/s 763 mmHg 83%
17:00 +7°C° 0.1 mm 4 m/s 762 mmHg 84%
18:00 +7°C° 0.1 mm 4 m/s 762 mmHg 85%
19:00 +7°C° 0.1 mm 4 m/s 762 mmHg 86%
20:00 +7°C° 0.1 mm 4 m/s 762 mmHg 87%
21:00 +7°C° 0 mm 4 m/s 762 mmHg 87%
22:00 +6°C° 0 mm 4 m/s 762 mmHg 87%
23:00 +6°C° 0 mm 4 m/s 762 mmHg 87%

Amanhã, 23 Janeiro, Sábado

Tempo Temperatura Precipitação Vento Pressão Humidade
00:00 +6°C° 0 mm 4 m/s 762 mmHg 87%
01:00 +7°C° 0 mm 3 m/s 761 mmHg 87%
02:00 +7°C° 0 mm 3 m/s 761 mmHg 87%
03:00 +6°C° 0 mm 4 m/s 761 mmHg 87%
04:00 +6°C° 0 mm 4 m/s 761 mmHg 87%
05:00 +6°C° 0 mm 4 m/s 761 mmHg 87%
06:00 +6°C° 0 mm 4 m/s 760 mmHg 87%
07:00 +7°C° 0 mm 4 m/s 760 mmHg 87%
08:00 +7°C° 0 mm 4 m/s 760 mmHg 86%
09:00 +8°C° 0 mm 5 m/s 760 mmHg 84%
10:00 +8°C° 0 mm 5 m/s 760 mmHg 82%
11:00 +9°C° 0 mm 5 m/s 760 mmHg 79%
12:00 +10°C° 0.1 mm 6 m/s 759 mmHg 76%
13:00 +11°C° 0.1 mm 7 m/s 759 mmHg 72%
14:00 +13°C° 0.1 mm 8 m/s 758 mmHg 68%
15:00 +12°C° 0.1 mm 7 m/s 758 mmHg 70%
16:00 +11°C° 0.1 mm 7 m/s 757 mmHg 72%
17:00 +11°C° 0.1 mm 7 m/s 757 mmHg 74%
18:00 +11°C° 0.1 mm 7 m/s 757 mmHg 77%
19:00 +10°C° 0.1 mm 7 m/s 757 mmHg 79%
20:00 +10°C° 0.1 mm 7 m/s 757 mmHg 82%
21:00 +10°C° 0.1 mm 7 m/s 757 mmHg 82%
22:00 +10°C° 0.1 mm 8 m/s 757 mmHg 83%
23:00 +9°C° 0.1 mm 8 m/s 757 mmHg 83%

Depois de amanhã, 24 Janeiro, Domingo

Tempo Temperatura Precipitação Vento Pressão Humidade
00:00 +9°C° 0.1 mm 8 m/s 756 mmHg 84%
01:00 +9°C° 0.1 mm 8 m/s 756 mmHg 84%
02:00 +9°C° 0.1 mm 8 m/s 756 mmHg 84%
03:00 +9°C° 0.3 mm 8 m/s 755 mmHg 84%
04:00 +9°C° 0.3 mm 8 m/s 755 mmHg 84%
05:00 +9°C° 0.3 mm 8 m/s 755 mmHg 84%
06:00 +10°C° 0.9 mm 8 m/s 755 mmHg 85%
07:00 +10°C° 0.9 mm 8 m/s 755 mmHg 85%
08:00 +10°C° 0.9 mm 8 m/s 755 mmHg 86%
09:00 +11°C° 0.2 mm 9 m/s 755 mmHg 83%
10:00 +11°C° 0.2 mm 9 m/s 755 mmHg 81%
11:00 +12°C° 0.2 mm 9 m/s 755 mmHg 78%
12:00 +12°C° 0.4 mm 10 m/s 755 mmHg 76%
13:00 +13°C° 0.4 mm 10 m/s 755 mmHg 74%
14:00 +13°C° 0.4 mm 10 m/s 755 mmHg 73%
15:00 +13°C° 0.2 mm 9 m/s 754 mmHg 74%
16:00 +12°C° 0.2 mm 9 m/s 754 mmHg 76%
17:00 +12°C° 0.2 mm 8 m/s 754 mmHg 78%
18:00 +11°C° 0.1 mm 7 m/s 754 mmHg 81%
19:00 +11°C° 0.1 mm 7 m/s 754 mmHg 84%
20:00 +10°C° 0.1 mm 6 m/s 755 mmHg 87%
21:00 +10°C° 0.2 mm 6 m/s 754 mmHg 87%
22:00 +11°C° 0.2 mm 7 m/s 754 mmHg 87%
23:00 +11°C° 0.2 mm 7 m/s 754 mmHg 87%

25 Janeiro, Segunda-feira

Tempo Temperatura Precipitação Vento Pressão Humidade
00:00 +11°C° 0.2 mm 7 m/s 753 mmHg 87%
01:00 +11°C° 0.2 mm 7 m/s 753 mmHg 87%
02:00 +11°C° 0.2 mm 8 m/s 753 mmHg 86%
03:00 +11°C° 0.9 mm 9 m/s 752 mmHg 86%
04:00 +11°C° 0.9 mm 9 m/s 752 mmHg 87%
05:00 +11°C° 0.9 mm 10 m/s 751 mmHg 87%
06:00 +11°C° 1.9 mm 11 m/s 751 mmHg 87%
07:00 +10°C° 1.9 mm 12 m/s 751 mmHg 88%
08:00 +10°C° 1.9 mm 13 m/s 751 mmHg 88%
09:00 +12°C° 1.2 mm 12 m/s 751 mmHg 85%
10:00 +13°C° 1.2 mm 12 m/s 751 mmHg 82%
11:00 +13°C° 1.2 mm 12 m/s 751 mmHg 79%
12:00 +14°C° 0.5 mm 11 m/s 751 mmHg 76%
13:00 +14°C° 0.5 mm 11 m/s 751 mmHg 73%
14:00 +16°C° 0.5 mm 11 m/s 752 mmHg 70%
15:00 +14°C° 0.2 mm 11 m/s 752 mmHg 72%
16:00 +14°C° 0.2 mm 10 m/s 752 mmHg 73%
17:00 +13°C° 0.2 mm 10 m/s 752 mmHg 75%
18:00 +13°C° 0.1 mm 9 m/s 753 mmHg 77%
19:00 +12°C° 0.1 mm 8 m/s 753 mmHg 78%
20:00 +12°C° 0.1 mm 8 m/s 753 mmHg 80%
21:00 +12°C° 0 mm 8 m/s 753 mmHg 80%
22:00 +12°C° 0 mm 8 m/s 753 mmHg 79%
23:00 +12°C° 0 mm 9 m/s 753 mmHg 79%

26 Janeiro, Terça-feira

Tempo Temperatura Precipitação Vento Pressão Humidade
00:00 +12°C° 0.1 mm 9 m/s 753 mmHg 80%
01:00 +11°C° 0.1 mm 9 m/s 753 mmHg 80%
02:00 +11°C° 0.1 mm 9 m/s 753 mmHg 81%
03:00 +11°C° 0.2 mm 8 m/s 753 mmHg 81%
04:00 +11°C° 0.2 mm 7 m/s 753 mmHg 81%
05:00 +11°C° 0.2 mm 6 m/s 753 mmHg 81%
06:00 +10°C° 0.2 mm 6 m/s 754 mmHg 81%
07:00 +10°C° 0.2 mm 5 m/s 754 mmHg 82%
08:00 +11°C° 0.2 mm 4 m/s 754 mmHg 82%
09:00 +12°C° 0.2 mm 5 m/s 755 mmHg 77%
10:00 +13°C° 0.2 mm 5 m/s 755 mmHg 71%
11:00 +14°C° 0.2 mm 5 m/s 755 mmHg 65%
12:00 +14°C° 0.2 mm 4 m/s 755 mmHg 65%
13:00 +14°C° 0.2 mm 3 m/s 754 mmHg 65%
14:00 +14°C° 0.2 mm 3 m/s 754 mmHg 65%
15:00 +14°C° 0.2 mm 2 m/s 754 mmHg 68%
16:00 +14°C° 0.2 mm 2 m/s 754 mmHg 70%
17:00 +13°C° 0.2 mm 1 m/s 754 mmHg 72%
18:00 +13°C° 0.1 mm 2 m/s 754 mmHg 73%
19:00 +12°C° 0.1 mm 2 m/s 754 mmHg 74%
20:00 +12°C° 0.1 mm 2 m/s 754 mmHg 74%
21:00 +10°C° 0.3 mm 3 m/s 754 mmHg 76%
22:00 +10°C° 0.3 mm 3 m/s 754 mmHg 78%
23:00 +9°C° 0.3 mm 3 m/s 754 mmHg 80%

27 Janeiro, Quarta-feira

Tempo Temperatura Precipitação Vento Pressão Humidade
00:00 +9°C° 0.2 mm 3 m/s 754 mmHg 80%
01:00 +8°C° 0.2 mm 3 m/s 754 mmHg 80%
02:00 +7°C° 0.2 mm 3 m/s 753 mmHg 80%
03:00 +6°C° 0.3 mm 4 m/s 753 mmHg 82%
04:00 +6°C° 0.3 mm 4 m/s 753 mmHg 85%
05:00 +6°C° 0.3 mm 5 m/s 752 mmHg 87%
06:00 +5°C° 0.1 mm 5 m/s 752 mmHg 87%
07:00 +5°C° 0.1 mm 5 m/s 752 mmHg 87%
08:00 +5°C° 0.1 mm 5 m/s 752 mmHg 86%
09:00 +4°C° 0 mm 6 m/s 752 mmHg 83%
10:00 +4°C° 0 mm 6 m/s 752 mmHg 79%
11:00 +4°C° 0 mm 7 m/s 752 mmHg 75%
12:00 +4°C° 0 mm 7 m/s 752 mmHg 69%
13:00 +5°C° 0 mm 7 m/s 752 mmHg 63%
14:00 +6°C° 0 mm 7 m/s 752 mmHg 57%
15:00 +5°C° 0 mm 6 m/s 752 mmHg 59%
16:00 +4°C° 0 mm 6 m/s 753 mmHg 60%
17:00 +5°C° 0 mm 5 m/s 753 mmHg 62%
18:00 +3°C° 0 mm 5 m/s 753 mmHg 63%
19:00 +3°C° 0 mm 4 m/s 754 mmHg 65%
20:00 +1°C° 0 mm 4 m/s 754 mmHg 67%
21:00 +2°C° 0 mm 3 m/s 755 mmHg 67%
22:00 +1°C° 0 mm 3 m/s 755 mmHg 67%
23:00 +1°C° 0 mm 3 m/s 755 mmHg 67%
Mostrar mais

Necessitamos do seu Consentimento

A Meteoprog e os seus Fornecedores de Serviços podem armazenar e aceder a dados pessoais como cookies, identificadores do dispositivo ou outras tecnologias semelhantes existentes no seu dispositivo e processar estes dados para personalizar conteúdos e anúncios, assim como funcionalidades nas redes sociais e análise de tráfego.

  • Armazenar e/ou aceder a informações no seu dispositivo

    Os cookies, identificadores do dispositivo ou outras informações podem ser armazenados ou acedidos no seu dispositivo, para os fins acima indicados.

  • Anúncios e conteúdos personalizados, medição de anúncios e conteúdos, dados sobre o público-alvo e desenvolvimento de produtos

    Os anúncios e os conteúdos podem ser personalizados com base num perfil. Podem ser adicionados dados adicionais para uma maior personalização dos anúncios e dos conteúdos. A eficácia dos anúncios e dos conteúdos pode ser medida. Podem ser obtidas informações sobre o público que visualizou os anúncios e os conteúdos. Estes dados podem ser usados para desenvolver ou melhorar sistemas, softwares ou a experiência do utilizador.

Ao clicar em "Eu concordo”, permitirá o uso de cookies, identificadores do dispositivo e web beacons mencionados ou outras tecnologias semelhantes. As configurações do navegador do seu dispositivo podem ser alteradas.

Para certos fins, podem ser invocados interesses legítimos ao invés de consentimento. Pode ler mais informação sobre este assunto na nossa Política de Privacidade e Cookies.